Flag for San Marino Weather past 2 weeks in San Marino, San Marino

Now
43 °F

Clear.


Feels Like: 39 °F
Forecast: 36 / 49 °F
Wind: 6 mph from West

Location: Cervia Airport

Current Time: Feb 27, 2015 at 7:12:06 AM

Latest Report: Feb 27, 2015 at 5:55 AM


Visibility: 10 mi

Pressure: 29.92 "Hg

Humidity: 81%

Dew point: 37 °F

Location of San MarinoLocation

Historic Weather in San Marino — Graph

°F

San Marino temperature yesterday

Maximum temperature yesterday: 50 °F (at 11:55 AM)
Minimum temperature yesterday: 43 °F (at 4:55 AM)
Average temperature yesterday: 46 °F

Past Weeks' High & Low Weather Summary

 TemperatureHumidityPressure
High55 °F (Feb 21, 11:55 AM)94% (Feb 15, 4:55 PM)30.60 "Hg (Feb 15, 4:55 PM)
Low30 °F (Feb 19, 4:55 AM)46% (Feb 18, 4:55 PM)29.45 "Hg (Feb 22, 5:55 AM)
Average44 °F85%30.03 "Hg
* Reported Feb 12 5:55 AM — Feb 27 5:55 AM, San Marino, Weather by CustomWeather, © 2015

Note: Actual official high and low records may vary slightly from our data, if they occured in-between our weather recording intervals... More about our weather records

Advertising

San Marino weather history for previous 24 hours

 ConditionsComfort  
Time TempWeatherWind HumidityBarometerVisibility
5:55 AM
Fri, Feb 27
43 °FClear.6 mph81%29.92 "Hg10 mi
4:55 AM43 °FClear.3 mph87%29.92 "Hg10 mi
3:55 AM43 °FClear.3 mph87%29.95 "Hg10 mi
2:55 AM43 °FClear.3 mph87%29.95 "Hg10 mi
1:55 AM43 °FClear.2 mph87%29.98 "Hg10 mi
12:55 AM43 °FClear.2 mph87%30.01 "Hg10 mi
11:55 PM
Thu, Feb 26
43 °FClear.3 mph87%30.01 "Hg10 mi
10:55 PM43 °FClear.2 mph93%30.01 "Hg10 mi
9:55 PM43 °FClear.5 mph93%30.04 "Hg10 mi
8:55 PM45 °FClear.5 mph87%30.04 "Hg10 mi
7:55 PM46 °FClear.6 mph87%30.01 "Hg10 mi
6:55 PM46 °FPassing clouds.3 mph87%30.04 "HgN/A
5:55 PM48 °FClear.2 mph87%30.01 "Hg10 mi
4:55 PM48 °FSunny.5 mph87%30.01 "Hg10 mi
3:55 PM50 °FPartly sunny.8 mph76%30.01 "HgN/A
2:55 PM50 °FScattered clouds.10 mph76%30.04 "HgN/A
1:55 PM48 °FScattered clouds.10 mph82%30.04 "HgN/A
12:55 PM50 °FPassing clouds.10 mph76%30.04 "HgN/A
11:55 AM50 °FScattered clouds.13 mph76%30.07 "HgN/A
10:55 AM48 °FScattered clouds.5 mph87%30.07 "HgN/A
9:55 AM45 °FScattered clouds.3 mph87%30.04 "HgN/A
8:55 AM43 °FScattered clouds.6 mph87%30.04 "HgN/A
7:55 AM43 °FScattered clouds.3 mph87%30.01 "HgN/A
Weather by CustomWeather, © 2015

See weather overviewHow to use our weather pages